Tracking 30922 objects as of 2-Jul-2025
HD Live streaming from Space Station
objects crossing your sky now

COSMOS 505

Track COSMOS 505 now!
10-day predictions
COSMOS 505 is classified as:


NORAD ID: 6118
Int'l Code: 1972-057B
Perigee: 1,358.7 km
Apogee: 1,503.0 km
Inclination: 74.0 °
Period: 114.3 minutes
Semi major axis: 7801 km
RCS: 0.7076 m2 (medium)
Launch date: July 20, 1972
Source: Commonwealth of Independent States (former USSR) (CIS)
Launch site: PLESETSK MISSILE AND SPACE COMPLEX (PKMTR)
Your satellite tracking list
FENGYUN 1C DEB
Track 1 satellite(s)




NASA's NSSDC Master Catalog

Two Line Element Set (TLE):
1 06118U 72057B   25182.53978624 -.00000010  00000-0  34064-4 0  9992
2 06118  74.0293 327.8247 0092430  21.8040  45.0669 12.59813902434910
Source of the keplerian elements: AFSPC